Time,TemperatureF,DewpointF,PressureIn,WindDirection,WindDirectionDegrees,WindSpeedMPH,WindSpeedGustMPH,Humidity,HourlyPrecipIn,Conditions,Clouds,dailyrainin,SoftwareType,DateUTC
2013-03-11 00:03:00,53.5,42.8,30.38,SE,133,0.0,0.0,67,0.00,,,0.00,Wunderground v.1.15,2013-03-11 07:03:00,
2013-03-11 00:09:00,53.5,42.4,30.37,SE,133,0.0,0.0,66,0.00,,,0.00,Wunderground v.1.15,2013-03-11 07:09:00,
2013-03-11 00:15:00,53.4,42.3,30.37,SE,133,0.0,0.0,66,0.00,,,0.00,Wunderground v.1.15,2013-03-11 07:15:00,
2013-03-11 00:20:00,53.2,42.5,30.37,SE,133,0.0,0.0,67,0.00,,,0.00,Wunderground v.1.15,2013-03-11 07:20:00,
2013-03-11 00:25:00,53.0,42.3,30.37,SE,133,0.0,0.0,67,0.00,,,0.00,Wunderground v.1.15,2013-03-11 07:25:00,
2013-03-11 00:30:00,52.8,42.1,30.37,SE,133,0.0,0.0,67,0.00,,,0.00,Wunderground v.1.15,2013-03-11 07:30:00,
2013-03-11 00:36:00,52.6,42.3,30.37,SE,133,0.0,0.0,68,0.00,,,0.00,Wunderground v.1.15,2013-03-11 07:36:00,
2013-03-11 00:41:00,52.3,42.0,30.37,SE,133,0.0,0.0,68,0.00,,,0.00,Wunderground v.1.15,2013-03-11 07:41:00,
2013-03-11 00:47:00,52.2,42.3,30.36,SE,133,0.0,0.0,69,0.00,,,0.00,Wunderground v.1.15,2013-03-11 07:47:00,
2013-03-11 00:52:00,52.1,42.2,30.37,SE,133,0.0,0.0,69,0.00,,,0.00,Wunderground v.1.15,2013-03-11 07:52:00,
2013-03-11 00:58:00,52.1,42.2,30.36,SE,133,0.0,0.0,69,0.00,,,0.00,Wunderground v.1.15,2013-03-11 07:58:00,
2013-03-11 01:02:00,52.0,42.1,30.37,SE,133,0.0,0.0,69,0.00,,,0.00,Wunderground v.1.15,2013-03-11 08:02:00,
2013-03-11 01:08:00,51.8,41.9,30.37,SE,133,0.0,0.0,69,0.00,,,0.00,Wunderground v.1.15,2013-03-11 08:08:00,
2013-03-11 01:13:00,51.6,42.1,30.37,SE,133,0.0,0.0,70,0.00,,,0.00,Wunderground v.1.15,2013-03-11 08:13:00,
2013-03-11 01:19:00,51.4,42.3,30.36,SE,133,0.0,0.0,71,0.00,,,0.00,Wunderground v.1.15,2013-03-11 08:19:00,
2013-03-11 01:25:00,51.0,41.9,30.36,SE,133,0.0,0.0,71,0.00,,,0.00,Wunderground v.1.15,2013-03-11 08:25:00,
2013-03-11 01:30:00,50.8,42.1,30.36,SE,133,0.0,0.0,72,0.00,,,0.00,Wunderground v.1.15,2013-03-11 08:30:00,
2013-03-11 01:36:00,50.6,41.9,30.36,SE,133,0.0,0.0,72,0.00,,,0.00,Wunderground v.1.15,2013-03-11 08:36:00,
2013-03-11 01:42:00,50.5,41.8,30.36,SE,133,0.0,0.0,72,0.00,,,0.00,Wunderground v.1.15,2013-03-11 08:42:00,
2013-03-11 01:47:00,50.4,42.1,30.36,SE,133,0.0,0.0,73,0.00,,,0.00,Wunderground v.1.15,2013-03-11 08:47:00,
2013-03-11 01:53:00,50.3,42.0,30.36,SE,133,0.0,0.0,73,0.00,,,0.00,Wunderground v.1.15,2013-03-11 08:53:00,
2013-03-11 01:59:00,50.2,42.2,30.36,SE,133,0.0,0.0,74,0.00,,,0.00,Wunderground v.1.15,2013-03-11 08:59:00,
2013-03-11 02:04:00,50.2,42.2,30.37,SE,133,0.0,0.0,74,0.00,,,0.00,Wunderground v.1.15,2013-03-11 09:04:00,
2013-03-11 02:09:00,50.2,42.2,30.37,SE,133,0.0,0.0,74,0.00,,,0.00,Wunderground v.1.15,2013-03-11 09:09:00,
2013-03-11 02:14:00,50.3,42.3,30.38,SE,133,0.0,0.0,74,0.00,,,0.00,Wunderground v.1.15,2013-03-11 09:14:00,
2013-03-11 02:19:00,50.4,42.4,30.37,SE,133,0.0,0.0,74,0.00,,,0.00,Wunderground v.1.15,2013-03-11 09:19:00,
2013-03-11 02:24:00,50.3,42.3,30.37,SE,133,0.0,0.0,74,0.00,,,0.00,Wunderground v.1.15,2013-03-11 09:24:00,
2013-03-11 02:29:00,50.1,42.1,30.37,SE,133,0.0,0.0,74,0.00,,,0.00,Wunderground v.1.15,2013-03-11 09:29:00,
2013-03-11 02:34:00,50.0,42.0,30.37,SE,133,0.0,0.0,74,0.00,,,0.00,Wunderground v.1.15,2013-03-11 09:34:00,
2013-03-11 02:39:00,49.7,42.1,30.36,SE,133,0.0,0.0,75,0.00,,,0.00,Wunderground v.1.15,2013-03-11 09:39:00,
2013-03-11 02:44:00,49.4,41.8,30.37,SE,133,0.0,0.0,75,0.00,,,0.00,Wunderground v.1.15,2013-03-11 09:44:00,
2013-03-11 02:49:00,49.0,41.4,30.37,SE,133,0.0,0.0,75,0.00,,,0.00,Wunderground v.1.15,2013-03-11 09:49:00,
2013-03-11 02:54:00,48.7,41.8,30.36,SE,133,0.0,0.0,77,0.00,,,0.00,Wunderground v.1.15,2013-03-11 09:54:00,
2013-03-11 02:59:00,48.5,42.3,30.36,SE,133,0.0,0.0,79,0.00,,,0.00,Wunderground v.1.15,2013-03-11 09:59:00,
2013-03-11 03:04:00,48.0,41.8,30.37,SE,133,0.0,0.0,79,0.00,,,0.00,Wunderground v.1.15,2013-03-11 10:04:00,
2013-03-11 03:09:00,47.8,41.6,30.37,SE,133,0.0,0.0,79,0.00,,,0.00,Wunderground v.1.15,2013-03-11 10:09:00,
2013-03-11 03:14:00,47.6,41.4,30.37,SE,133,0.0,0.0,79,0.00,,,0.00,Wunderground v.1.15,2013-03-11 10:14:00,
2013-03-11 03:19:00,47.5,41.3,30.37,SE,133,0.0,0.0,79,0.00,,,0.00,Wunderground v.1.15,2013-03-11 10:19:00,
2013-03-11 03:24:00,47.4,41.2,30.37,SE,133,0.0,0.0,79,0.00,,,0.00,Wunderground v.1.15,2013-03-11 10:24:00,
2013-03-11 03:29:00,47.4,41.2,30.37,SE,133,0.0,0.0,79,0.00,,,0.00,Wunderground v.1.15,2013-03-11 10:29:00,
2013-03-11 03:34:00,47.2,41.0,30.37,SE,133,0.0,0.0,79,0.00,,,0.00,Wunderground v.1.15,2013-03-11 10:34:00,
2013-03-11 03:39:00,46.8,40.6,30.36,SE,133,0.0,0.0,79,0.00,,,0.00,Wunderground v.1.15,2013-03-11 10:39:00,
2013-03-11 03:44:00,46.4,40.2,30.36,SE,133,0.0,0.0,79,0.00,,,0.00,Wunderground v.1.15,2013-03-11 10:44:00,
2013-03-11 03:49:00,45.8,39.7,30.36,SE,133,0.0,0.0,79,0.00,,,0.00,Wunderground v.1.15,2013-03-11 10:49:00,
2013-03-11 03:55:00,45.3,39.5,30.37,SE,133,0.0,2.0,80,0.00,,,0.00,Wunderground v.1.15,2013-03-11 10:55:00,
2013-03-11 03:59:00,45.1,39.6,30.37,SE,133,0.0,0.0,81,0.00,,,0.00,Wunderground v.1.15,2013-03-11 10:59:00,
2013-03-11 04:05:00,45.0,39.5,30.36,SE,133,0.0,0.0,81,0.00,,,0.00,Wunderground v.1.15,2013-03-11 11:05:00,
2013-03-11 04:10:00,45.0,39.5,30.37,SE,133,0.0,0.0,81,0.00,,,0.00,Wunderground v.1.15,2013-03-11 11:10:00,
2013-03-11 04:15:00,44.9,39.7,30.37,SE,133,0.0,0.0,82,0.00,,,0.00,Wunderground v.1.15,2013-03-11 11:15:00,
2013-03-11 04:20:00,44.8,39.6,30.37,SE,133,0.0,0.0,82,0.00,,,0.00,Wunderground v.1.15,2013-03-11 11:20:00,
2013-03-11 04:25:00,44.7,39.5,30.37,SE,133,0.0,0.0,82,0.00,,,0.00,Wunderground v.1.15,2013-03-11 11:25:00,
2013-03-11 04:30:00,44.5,39.3,30.37,SE,133,0.0,0.0,82,0.00,,,0.00,Wunderground v.1.15,2013-03-11 11:30:00,
2013-03-11 04:35:00,44.4,39.2,30.37,SE,133,0.0,0.0,82,0.00,,,0.00,Wunderground v.1.15,2013-03-11 11:35:00,
2013-03-11 04:40:00,44.3,39.5,30.37,SE,133,0.0,0.0,83,0.00,,,0.00,Wunderground v.1.15,2013-03-11 11:40:00,
2013-03-11 04:45:00,44.2,39.4,30.36,SE,133,0.0,0.0,83,0.00,,,0.00,Wunderground v.1.15,2013-03-11 11:45:00,
2013-03-11 04:50:00,44.2,39.4,30.36,SE,133,0.0,0.0,83,0.00,,,0.00,Wunderground v.1.15,2013-03-11 11:50:00,
2013-03-11 04:55:00,44.1,39.3,30.36,SE,133,0.0,0.0,83,0.00,,,0.00,Wunderground v.1.15,2013-03-11 11:55:00,
2013-03-11 05:00:00,44.0,39.2,30.37,SE,133,0.0,0.0,83,0.00,,,0.00,Wunderground v.1.15,2013-03-11 12:00:00,
2013-03-11 05:06:00,43.9,39.1,30.37,SE,133,0.0,0.0,83,0.00,,,0.00,Wunderground v.1.15,2013-03-11 12:06:00,
2013-03-11 05:11:00,43.8,39.3,30.37,SE,133,0.0,0.0,84,0.00,,,0.00,Wunderground v.1.15,2013-03-11 12:11:00,
2013-03-11 05:16:00,43.7,39.2,30.37,SE,133,0.0,0.0,84,0.00,,,0.00,Wunderground v.1.15,2013-03-11 12:16:00,
2013-03-11 05:21:00,43.6,39.1,30.37,SE,133,0.0,0.0,84,0.00,,,0.00,Wunderground v.1.15,2013-03-11 12:21:00,
2013-03-11 05:26:00,43.4,38.9,30.37,SE,133,0.0,0.0,84,0.00,,,0.00,Wunderground v.1.15,2013-03-11 12:26:00,
2013-03-11 05:31:00,43.3,39.1,30.37,SE,133,0.0,0.0,85,0.00,,,0.00,Wunderground v.1.15,2013-03-11 12:31:00,
2013-03-11 05:36:00,43.2,39.0,30.37,SE,133,0.0,0.0,85,0.00,,,0.00,Wunderground v.1.15,2013-03-11 12:36:00,
2013-03-11 05:41:00,43.1,38.9,30.37,SE,133,0.0,0.0,85,0.00,,,0.00,Wunderground v.1.15,2013-03-11 12:41:00,
2013-03-11 05:47:00,43.1,39.2,30.37,SE,133,0.0,0.0,86,0.00,,,0.00,Wunderground v.1.15,2013-03-11 12:47:00,
2013-03-11 05:52:00,43.1,39.2,30.37,SE,133,0.0,0.0,86,0.00,,,0.00,Wunderground v.1.15,2013-03-11 12:52:00,
2013-03-11 05:57:00,43.1,39.2,30.37,SE,133,0.0,0.0,86,0.00,,,0.00,Wunderground v.1.15,2013-03-11 12:57:00,
2013-03-11 06:02:00,43.1,39.2,30.38,SE,133,0.0,0.0,86,0.00,,,0.00,Wunderground v.1.15,2013-03-11 13:02:00,
2013-03-11 06:07:00,42.9,39.0,30.38,SE,133,0.0,0.0,86,0.00,,,0.00,Wunderground v.1.15,2013-03-11 13:07:00,
2013-03-11 06:12:00,42.9,39.0,30.38,SE,133,0.0,0.0,86,0.00,,,0.00,Wunderground v.1.15,2013-03-11 13:12:00,
2013-03-11 06:17:00,42.8,39.2,30.38,SE,133,0.0,0.0,87,0.00,,,0.00,Wunderground v.1.15,2013-03-11 13:17:00,
2013-03-11 06:23:00,42.7,39.1,30.37,SE,133,0.0,0.0,87,0.00,,,0.00,Wunderground v.1.15,2013-03-11 13:23:00,
2013-03-11 06:28:00,42.7,39.1,30.37,SE,133,0.0,0.0,87,0.00,,,0.00,Wunderground v.1.15,2013-03-11 13:28:00,
2013-03-11 06:33:00,42.8,39.2,30.37,SE,133,0.0,0.0,87,0.00,,,0.00,Wunderground v.1.15,2013-03-11 13:33:00,
2013-03-11 06:38:00,42.7,39.1,30.37,SE,133,0.0,0.0,87,0.00,,,0.00,Wunderground v.1.15,2013-03-11 13:38:00,
2013-03-11 06:43:00,42.7,39.1,30.38,SE,133,0.0,0.0,87,0.00,,,0.00,Wunderground v.1.15,2013-03-11 13:43:00,
2013-03-11 06:48:00,42.6,39.0,30.38,SE,133,0.0,0.0,87,0.00,,,0.00,Wunderground v.1.15,2013-03-11 13:48:00,
2013-03-11 06:53:00,42.5,38.9,30.38,SE,133,0.0,0.0,87,0.00,,,0.00,Wunderground v.1.15,2013-03-11 13:53:00,
2013-03-11 06:58:00,42.4,38.8,30.38,SE,133,0.0,0.0,87,0.00,,,0.00,Wunderground v.1.15,2013-03-11 13:58:00,
2013-03-11 07:03:00,42.3,38.7,30.37,SE,133,0.0,0.0,87,0.00,,,0.00,Wunderground v.1.15,2013-03-11 14:03:00,
2013-03-11 07:08:00,42.3,38.7,30.38,SE,133,0.0,0.0,87,0.00,,,0.00,Wunderground v.1.15,2013-03-11 14:08:00,
2013-03-11 07:13:00,42.2,38.6,30.38,SE,133,0.0,0.0,87,0.00,,,0.00,Wunderground v.1.15,2013-03-11 14:13:00,
2013-03-11 07:19:00,42.2,38.6,30.38,SE,133,0.0,0.0,87,0.00,,,0.00,Wunderground v.1.15,2013-03-11 14:19:00,
2013-03-11 07:24:00,42.2,38.6,30.38,SE,133,0.0,0.0,87,0.00,,,0.00,Wunderground v.1.15,2013-03-11 14:24:00,
2013-03-11 07:29:00,42.1,38.8,30.38,SE,133,0.0,0.0,88,0.00,,,0.00,Wunderground v.1.15,2013-03-11 14:29:00,
2013-03-11 07:34:00,42.1,38.8,30.38,SE,133,0.0,0.0,88,0.00,,,0.00,Wunderground v.1.15,2013-03-11 14:34:00,
2013-03-11 07:39:00,42.1,38.8,30.37,SE,133,0.0,0.0,88,0.00,,,0.00,Wunderground v.1.15,2013-03-11 14:39:00,
2013-03-11 07:44:00,42.2,38.9,30.37,SE,133,0.0,0.0,88,0.00,,,0.00,Wunderground v.1.15,2013-03-11 14:44:00,
2013-03-11 07:49:00,42.4,39.1,30.37,SE,133,0.0,0.0,88,0.00,,,0.00,Wunderground v.1.15,2013-03-11 14:49:00,
2013-03-11 07:54:00,42.7,39.4,30.38,SE,133,0.0,0.0,88,0.00,,,0.00,Wunderground v.1.15,2013-03-11 14:54:00,
2013-03-11 07:59:00,43.0,39.7,30.38,SE,133,0.0,0.0,88,0.00,,,0.00,Wunderground v.1.15,2013-03-11 14:59:00,
2013-03-11 08:04:00,43.1,39.8,30.38,SE,133,0.0,0.0,88,0.00,,,0.00,Wunderground v.1.15,2013-03-11 15:04:00,
2013-03-11 08:09:00,43.4,40.1,30.38,SE,133,0.0,0.0,88,0.00,,,0.00,Wunderground v.1.15,2013-03-11 15:09:00,
2013-03-11 08:14:00,43.6,40.3,30.38,SE,133,0.0,3.0,88,0.00,,,0.00,Wunderground v.1.15,2013-03-11 15:14:00,
2013-03-11 08:19:00,43.8,40.2,30.38,South,171,0.0,0.0,87,0.00,,,0.00,Wunderground v.1.15,2013-03-11 15:19:00,
2013-03-11 08:24:00,44.0,40.4,30.38,South,171,0.0,0.0,87,0.00,,,0.00,Wunderground v.1.15,2013-03-11 15:24:00,
2013-03-11 08:29:00,44.3,40.7,30.38,South,171,2.0,2.0,87,0.00,,,0.00,Wunderground v.1.15,2013-03-11 15:29:00,
2013-03-11 08:34:00,44.7,41.1,30.39,South,171,0.0,2.0,87,0.00,,,0.00,Wunderground v.1.15,2013-03-11 15:34:00,
2013-03-11 08:40:00,45.0,41.4,30.38,South,171,0.0,0.0,87,0.00,,,0.00,Wunderground v.1.15,2013-03-11 15:40:00,
2013-03-11 08:45:00,45.5,41.9,30.38,South,171,0.0,3.0,87,0.00,,,0.00,Wunderground v.1.15,2013-03-11 15:45:00,
2013-03-11 08:50:00,46.3,42.3,30.39,South,171,0.0,0.0,86,0.00,,,0.00,Wunderground v.1.15,2013-03-11 15:50:00,
2013-03-11 08:55:00,46.8,42.5,30.39,South,171,0.0,0.0,85,0.00,,,0.00,Wunderground v.1.15,2013-03-11 15:55:00,
2013-03-11 09:00:00,47.4,42.8,30.39,South,171,0.0,0.0,84,0.00,,,0.00,Wunderground v.1.15,2013-03-11 16:00:00,
2013-03-11 09:05:00,48.1,43.2,30.39,South,171,0.0,1.0,83,0.00,,,0.00,Wunderground v.1.15,2013-03-11 16:05:00,
2013-03-11 09:10:00,48.5,43.3,30.39,South,171,0.0,0.0,82,0.00,,,0.00,Wunderground v.1.15,2013-03-11 16:10:00,
2013-03-11 09:15:00,49.4,43.8,30.39,South,171,0.0,0.0,81,0.00,,,0.00,Wunderground v.1.15,2013-03-11 16:15:00,
2013-03-11 09:20:00,50.1,43.8,30.39,South,171,0.0,0.0,79,0.00,,,0.00,Wunderground v.1.15,2013-03-11 16:20:00,
2013-03-11 09:25:00,50.1,43.8,30.39,South,170,2.0,3.0,79,0.00,,,0.00,Wunderground v.1.15,2013-03-11 16:25:00,
2013-03-11 09:30:00,50.1,43.8,30.39,SSE,167,0.0,1.0,79,0.00,,,0.00,Wunderground v.1.15,2013-03-11 16:30:00,
2013-03-11 09:35:00,50.9,44.6,30.39,SSE,167,0.0,1.0,79,0.00,,,0.00,Wunderground v.1.15,2013-03-11 16:35:00,
2013-03-11 09:40:00,52.2,45.2,30.39,SSE,167,1.0,1.0,77,0.00,,,0.00,Wunderground v.1.15,2013-03-11 16:40:00,
2013-03-11 09:45:00,52.4,45.1,30.39,SSE,167,0.0,2.0,76,0.00,,,0.00,Wunderground v.1.15,2013-03-11 16:45:00,
2013-03-11 09:50:00,52.9,45.5,30.39,SSE,167,0.0,0.0,76,0.00,,,0.00,Wunderground v.1.15,2013-03-11 16:50:00,
2013-03-11 09:55:00,53.4,45.7,30.39,SSE,167,0.0,2.0,75,0.00,,,0.00,Wunderground v.1.15,2013-03-11 16:55:00,
2013-03-11 10:00:00,53.9,45.8,30.39,SSE,167,1.0,3.0,74,0.00,,,0.00,Wunderground v.1.15,2013-03-11 17:00:00,
2013-03-11 10:05:00,54.4,46.3,30.38,SSE,167,0.0,3.0,74,0.00,,,0.00,Wunderground v.1.15,2013-03-11 17:05:00,
2013-03-11 10:10:00,55.5,46.6,30.38,SSE,167,0.0,0.0,72,0.00,,,0.00,Wunderground v.1.15,2013-03-11 17:10:00,
2013-03-11 10:16:00,55.9,46.3,30.38,SSE,167,0.0,2.0,70,0.00,,,0.00,Wunderground v.1.15,2013-03-11 17:16:00,
2013-03-11 10:29:00,56.3,46.6,30.38,SSE,167,0.0,3.0,70,0.00,,,0.00,Wunderground v.1.15,2013-03-11 17:29:00,
2013-03-11 10:43:00,57.7,47.2,30.38,SSE,166,0.0,0.0,68,0.00,,,0.00,Wunderground v.1.15,2013-03-11 17:43:00,
2013-03-11 10:48:00,58.2,47.3,30.38,SSE,165,0.0,2.0,67,0.00,,,0.00,Wunderground v.1.15,2013-03-11 17:48:00,
2013-03-11 10:53:00,59.4,48.0,30.38,SSE,166,0.0,0.0,66,0.00,,,0.00,Wunderground v.1.15,2013-03-11 17:53:00,
2013-03-11 10:58:00,59.7,47.5,30.38,SSE,167,0.0,4.0,64,0.00,,,0.00,Wunderground v.1.15,2013-03-11 17:58:00,
2013-03-11 11:03:00,60.7,48.0,30.37,SSE,167,0.0,0.0,63,0.00,,,0.00,Wunderground v.1.15,2013-03-11 18:03:00,
2013-03-11 11:08:00,61.0,47.9,30.37,SSE,167,0.0,0.0,62,0.00,,,0.00,Wunderground v.1.15,2013-03-11 18:08:00,
2013-03-11 11:13:00,61.8,48.2,30.37,SSE,167,0.0,0.0,61,0.00,,,0.00,Wunderground v.1.15,2013-03-11 18:13:00,
2013-03-11 11:18:00,62.6,48.5,30.36,SSE,167,0.0,0.0,60,0.00,,,0.00,Wunderground v.1.15,2013-03-11 18:18:00,
2013-03-11 11:23:00,63.8,48.3,30.36,SSE,167,0.0,0.0,57,0.00,,,0.00,Wunderground v.1.15,2013-03-11 18:23:00,
2013-03-11 11:28:00,63.2,46.8,30.36,SSE,167,2.0,3.0,55,0.00,,,0.00,Wunderground v.1.15,2013-03-11 18:28:00,
2013-03-11 11:33:00,63.2,47.7,30.36,SSE,167,0.0,1.0,57,0.00,,,0.00,Wunderground v.1.15,2013-03-11 18:33:00,
2013-03-11 11:38:00,63.2,47.2,30.36,SSE,167,0.0,1.0,56,0.00,,,0.00,Wunderground v.1.15,2013-03-11 18:38:00,
2013-03-11 11:44:00,63.4,46.9,30.36,South,171,3.0,3.0,55,0.00,,,0.00,Wunderground v.1.15,2013-03-11 18:44:00,
2013-03-11 11:49:00,62.6,47.6,30.36,South,171,0.0,4.0,58,0.00,,,0.00,Wunderground v.1.15,2013-03-11 18:49:00,
2013-03-11 11:54:00,63.5,48.0,30.36,South,171,0.0,2.0,57,0.00,,,0.00,Wunderground v.1.15,2013-03-11 18:54:00,
2013-03-11 12:00:00,63.1,47.6,30.35,South,176,3.0,3.0,57,0.00,,,0.00,Wunderground v.1.15,2013-03-11 19:00:00,
2013-03-11 12:05:00,62.4,47.0,30.35,South,176,0.0,4.0,57,0.00,,,0.00,Wunderground v.1.15,2013-03-11 19:05:00,
2013-03-11 12:10:00,62.8,45.9,30.35,South,176,2.0,2.0,54,0.00,,,0.00,Wunderground v.1.15,2013-03-11 19:10:00,
2013-03-11 12:15:00,63.9,46.9,30.35,South,176,0.0,2.0,54,0.00,,,0.00,Wunderground v.1.15,2013-03-11 19:15:00,
2013-03-11 12:20:00,64.7,46.7,30.35,South,177,2.0,3.0,52,0.00,,,0.00,Wunderground v.1.15,2013-03-11 19:20:00,
2013-03-11 12:25:00,64.7,47.2,30.34,South,177,0.0,3.0,53,0.00,,,0.00,Wunderground v.1.15,2013-03-11 19:25:00,
2013-03-11 12:30:00,64.6,47.6,30.34,South,176,0.0,1.0,54,0.00,,,0.00,Wunderground v.1.15,2013-03-11 19:30:00,
2013-03-11 12:35:00,64.3,47.3,30.34,South,177,0.0,4.0,54,0.00,,,0.00,Wunderground v.1.15,2013-03-11 19:35:00,
2013-03-11 12:40:00,64.8,48.2,30.34,South,176,0.0,0.0,55,0.00,,,0.00,Wunderground v.1.15,2013-03-11 19:40:00,
2013-03-11 12:45:00,65.5,48.4,30.33,South,177,0.0,0.0,54,0.00,,,0.00,Wunderground v.1.15,2013-03-11 19:45:00,
2013-03-11 12:50:00,65.8,49.7,30.33,South,177,0.0,0.0,56,0.00,,,0.00,Wunderground v.1.15,2013-03-11 19:50:00,
2013-03-11 12:55:00,65.9,49.3,30.33,South,177,5.0,5.0,55,0.00,,,0.00,Wunderground v.1.15,2013-03-11 19:55:00,
2013-03-11 13:00:00,65.1,49.0,30.33,South,176,4.0,4.0,56,0.00,,,0.00,Wunderground v.1.15,2013-03-11 20:00:00,
2013-03-11 13:05:00,64.8,47.8,30.32,South,176,0.0,6.0,54,0.00,,,0.00,Wunderground v.1.15,2013-03-11 20:05:00,
2013-03-11 13:10:00,65.3,48.7,30.32,South,176,0.0,1.0,55,0.00,,,0.00,Wunderground v.1.15,2013-03-11 20:10:00,
2013-03-11 13:15:00,65.9,48.8,30.32,South,180,5.0,5.0,54,0.00,,,0.00,Wunderground v.1.15,2013-03-11 20:15:00,
2013-03-11 13:20:00,66.0,47.9,30.31,South,184,2.0,5.0,52,0.00,,,0.00,Wunderground v.1.15,2013-03-11 20:20:00,
2013-03-11 13:25:00,66.4,47.7,30.31,South,184,0.0,5.0,51,0.00,,,0.00,Wunderground v.1.15,2013-03-11 20:25:00,
2013-03-11 13:30:00,66.6,47.4,30.31,South,184,0.0,0.0,50,0.00,,,0.00,Wunderground v.1.15,2013-03-11 20:30:00,
2013-03-11 13:35:00,66.8,47.0,30.31,South,188,3.0,5.0,49,0.00,,,0.00,Wunderground v.1.15,2013-03-11 20:35:00,
2013-03-11 13:41:00,67.5,46.6,30.30,South,187,0.0,2.0,47,0.00,,,0.00,Wunderground v.1.15,2013-03-11 20:41:00,
2013-03-11 13:45:00,67.5,46.6,30.30,South,188,0.0,5.0,47,0.00,,,0.00,Wunderground v.1.15,2013-03-11 20:45:00,
2013-03-11 13:51:00,67.7,45.6,30.30,South,188,0.0,1.0,45,0.00,,,0.00,Wunderground v.1.15,2013-03-11 20:51:00,
2013-03-11 13:55:00,67.9,45.8,30.29,South,187,3.0,3.0,45,0.00,,,0.00,Wunderground v.1.15,2013-03-11 20:55:00,
2013-03-11 14:01:00,67.7,45.6,30.29,South,187,2.0,3.0,45,0.00,,,0.00,Wunderground v.1.15,2013-03-11 21:01:00,
2013-03-11 14:06:00,67.8,46.3,30.29,South,187,1.0,3.0,46,0.00,,,0.00,Wunderground v.1.15,2013-03-11 21:06:00,
2013-03-11 14:11:00,68.6,45.2,30.28,South,189,1.0,2.0,43,0.00,,,0.00,Wunderground v.1.15,2013-03-11 21:11:00,
2013-03-11 14:16:00,68.5,45.7,30.28,SSW,205,2.0,9.0,44,0.00,,,0.00,Wunderground v.1.15,2013-03-11 21:16:00,
2013-03-11 14:21:00,68.5,46.3,30.28,SSW,205,1.0,6.0,45,0.00,,,0.00,Wunderground v.1.15,2013-03-11 21:21:00,
2013-03-11 14:26:00,68.8,46.0,30.28,SSW,206,3.0,6.0,44,0.00,,,0.00,Wunderground v.1.15,2013-03-11 21:26:00,
2013-03-11 14:31:00,68.3,45.5,30.28,SSW,205,0.0,2.0,44,0.00,,,0.00,Wunderground v.1.15,2013-03-11 21:31:00,
2013-03-11 14:37:00,69.2,45.1,30.27,SSW,206,0.0,3.0,42,0.00,,,0.00,Wunderground v.1.15,2013-03-11 21:37:00,
2013-03-11 14:42:00,70.6,46.4,30.27,SSW,206,3.0,4.0,42,0.00,,,0.00,Wunderground v.1.15,2013-03-11 21:42:00,
2013-03-11 14:47:00,70.8,45.3,30.27,SSW,210,0.0,5.0,40,0.00,,,0.00,Wunderground v.1.15,2013-03-11 21:47:00,
2013-03-11 14:52:00,70.3,44.8,30.27,SSW,211,0.0,3.0,40,0.00,,,0.00,Wunderground v.1.15,2013-03-11 21:52:00,
2013-03-11 14:57:00,70.2,45.4,30.27,SSW,210,3.0,3.0,41,0.00,,,0.00,Wunderground v.1.15,2013-03-11 21:57:00,
2013-03-11 15:02:00,70.5,46.9,30.26,SSW,211,1.0,1.0,43,0.00,,,0.00,Wunderground v.1.15,2013-03-11 22:02:00,
2013-03-11 15:07:00,71.0,46.7,30.26,SSW,211,0.0,2.0,42,0.00,,,0.00,Wunderground v.1.15,2013-03-11 22:07:00,
2013-03-11 15:12:00,71.2,48.2,30.26,SSW,211,0.0,4.0,44,0.00,,,0.00,Wunderground v.1.15,2013-03-11 22:12:00,
2013-03-11 15:17:00,71.0,48.6,30.26,SSW,210,5.0,5.0,45,0.00,,,0.00,Wunderground v.1.15,2013-03-11 22:17:00,
2013-03-11 15:22:00,70.8,47.2,30.26,SSW,211,0.0,4.0,43,0.00,,,0.00,Wunderground v.1.15,2013-03-11 22:22:00,
2013-03-11 15:27:00,71.5,47.2,30.25,SSW,211,3.0,4.0,42,0.00,,,0.00,Wunderground v.1.15,2013-03-11 22:27:00,
2013-03-11 15:33:00,71.3,46.4,30.25,SSW,213,2.0,4.0,41,0.00,,,0.00,Wunderground v.1.15,2013-03-11 22:33:00,
2013-03-11 15:38:00,71.3,45.1,30.25,SSW,213,0.0,4.0,39,0.00,,,0.00,Wunderground v.1.15,2013-03-11 22:38:00,
2013-03-11 15:43:00,70.8,45.9,30.25,WSW,238,0.0,7.0,41,0.00,,,0.00,Wunderground v.1.15,2013-03-11 22:43:00,
2013-03-11 15:48:00,71.0,45.5,30.25,WSW,238,2.0,7.0,40,0.00,,,0.00,Wunderground v.1.15,2013-03-11 22:48:00,
2013-03-11 15:53:00,71.5,45.2,30.25,WSW,238,0.0,3.0,39,0.00,,,0.00,Wunderground v.1.15,2013-03-11 22:53:00,
2013-03-11 15:58:00,72.1,45.8,30.25,SW,227,3.0,6.0,39,0.00,,,0.00,Wunderground v.1.15,2013-03-11 22:58:00,
2013-03-11 16:03:00,71.6,45.3,30.24,SW,226,0.0,5.0,39,0.00,,,0.00,Wunderground v.1.15,2013-03-11 23:03:00,
2013-03-11 16:08:00,72.1,45.8,30.24,SW,226,3.0,5.0,39,0.00,,,0.00,Wunderground v.1.15,2013-03-11 23:08:00,
2013-03-11 16:13:00,72.4,43.9,30.24,SW,227,0.0,5.0,36,0.00,,,0.00,Wunderground v.1.15,2013-03-11 23:13:00,
2013-03-11 16:18:00,72.7,44.2,30.24,SW,226,1.0,5.0,36,0.00,,,0.00,Wunderground v.1.15,2013-03-11 23:18:00,
2013-03-11 16:23:00,72.4,44.6,30.25,SW,226,2.0,2.0,37,0.00,,,0.00,Wunderground v.1.15,2013-03-11 23:23:00,
2013-03-11 16:28:00,72.1,43.7,30.24,SW,226,2.0,6.0,36,0.00,,,0.00,Wunderground v.1.15,2013-03-11 23:28:00,
2013-03-11 16:33:00,71.8,43.4,30.24,SW,226,4.0,4.0,36,0.00,,,0.00,Wunderground v.1.15,2013-03-11 23:33:00,
2013-03-11 16:38:00,72.1,44.4,30.24,SW,227,0.0,5.0,37,0.00,,,0.00,Wunderground v.1.15,2013-03-11 23:38:00,
2013-03-11 16:43:00,73.1,45.3,30.24,SW,227,0.0,2.0,37,0.00,,,0.00,Wunderground v.1.15,2013-03-11 23:43:00,
2013-03-11 16:48:00,73.1,44.5,30.24,SW,226,0.0,2.0,36,0.00,,,0.00,Wunderground v.1.15,2013-03-11 23:48:00,
2013-03-11 16:53:00,73.1,45.3,30.23,SW,227,0.0,2.0,37,0.00,,,0.00,Wunderground v.1.15,2013-03-11 23:53:00,
2013-03-11 16:59:00,72.8,45.0,30.23,SW,227,0.0,3.0,37,0.00,,,0.00,Wunderground v.1.15,2013-03-11 23:59:00,
2013-03-11 17:04:00,72.0,45.0,30.23,SW,226,0.0,1.0,38,0.00,,,0.00,Wunderground v.1.15,2013-03-12 00:04:00,
2013-03-11 17:09:00,71.7,44.7,30.23,SW,226,0.0,1.0,38,0.00,,,0.00,Wunderground v.1.15,2013-03-12 00:09:00,
2013-03-11 17:15:00,72.6,46.2,30.23,SW,226,0.0,0.0,39,0.00,,,0.00,Wunderground v.1.15,2013-03-12 00:15:00,
2013-03-11 17:20:00,72.8,45.7,30.22,SW,226,0.0,0.0,38,0.00,,,0.00,Wunderground v.1.15,2013-03-12 00:20:00,
2013-03-11 17:25:00,72.6,46.9,30.22,SSW,194,0.0,3.0,40,0.00,,,0.00,Wunderground v.1.15,2013-03-12 00:25:00,
2013-03-11 17:30:00,72.4,46.0,30.22,SSW,194,2.0,3.0,39,0.00,,,0.00,Wunderground v.1.15,2013-03-12 00:30:00,
2013-03-11 17:35:00,71.8,46.2,30.22,SSW,194,0.0,3.0,40,0.00,,,0.00,Wunderground v.1.15,2013-03-12 00:35:00,
2013-03-11 17:40:00,71.8,48.1,30.22,SSW,194,0.0,1.0,43,0.00,,,0.00,Wunderground v.1.15,2013-03-12 00:40:00,
2013-03-11 17:45:00,72.1,49.0,30.22,SSW,194,0.0,2.0,44,0.00,,,0.00,Wunderground v.1.15,2013-03-12 00:45:00,
2013-03-11 17:51:00,72.6,47.5,30.22,SSW,194,0.0,1.0,41,0.00,,,0.00,Wunderground v.1.15,2013-03-12 00:51:00,
2013-03-11 17:56:00,72.7,47.6,30.22,SSW,194,0.0,2.0,41,0.00,,,0.00,Wunderground v.1.15,2013-03-12 00:56:00,
2013-03-11 18:01:00,72.5,47.5,30.22,SSW,194,1.0,3.0,41,0.00,,,0.00,Wunderground v.1.15,2013-03-12 01:01:00,
2013-03-11 18:06:00,71.8,47.5,30.22,SSW,194,1.0,3.0,42,0.00,,,0.00,Wunderground v.1.15,2013-03-12 01:06:00,
2013-03-11 18:11:00,71.4,47.1,30.21,SSW,194,1.0,1.0,42,0.00,,,0.00,Wunderground v.1.15,2013-03-12 01:11:00,
2013-03-11 18:16:00,71.1,46.8,30.21,SSW,194,0.0,3.0,42,0.00,,,0.00,Wunderground v.1.15,2013-03-12 01:16:00,
2013-03-11 18:21:00,70.7,47.1,30.21,SSW,194,1.0,4.0,43,0.00,,,0.00,Wunderground v.1.15,2013-03-12 01:21:00,
2013-03-11 18:26:00,70.3,49.1,30.21,SSW,194,5.0,5.0,47,0.00,,,0.00,Wunderground v.1.15,2013-03-12 01:26:00,
2013-03-11 18:31:00,69.7,48.6,30.21,SSW,195,4.0,5.0,47,0.00,,,0.00,Wunderground v.1.15,2013-03-12 01:31:00,
2013-03-11 18:36:00,69.0,49.0,30.21,SSW,200,2.0,6.0,49,0.00,,,0.00,Wunderground v.1.15,2013-03-12 01:36:00,
2013-03-11 18:41:00,68.5,49.1,30.21,SSW,201,1.0,5.0,50,0.00,,,0.00,Wunderground v.1.15,2013-03-12 01:41:00,
2013-03-11 18:46:00,68.1,48.8,30.22,SSW,200,3.0,5.0,50,0.00,,,0.00,Wunderground v.1.15,2013-03-12 01:46:00,
2013-03-11 18:52:00,67.6,48.3,30.21,SSW,202,3.0,5.0,50,0.00,,,0.00,Wunderground v.1.15,2013-03-12 01:52:00,
2013-03-11 18:57:00,67.0,48.8,30.21,SSW,202,2.0,5.0,52,0.00,,,0.00,Wunderground v.1.15,2013-03-12 01:57:00,
2013-03-11 19:02:00,66.4,48.2,30.21,SSW,202,3.0,4.0,52,0.00,,,0.00,Wunderground v.1.15,2013-03-12 02:02:00,
2013-03-11 19:10:00,65.8,48.7,30.21,SSW,202,1.0,3.0,54,0.00,,,0.00,Wunderground v.1.15,2013-03-12 02:10:00,
2013-03-11 19:15:00,65.4,48.3,30.21,SSW,202,1.0,4.0,54,0.00,,,0.00,Wunderground v.1.15,2013-03-12 02:15:00,
2013-03-11 19:20:00,65.4,47.8,30.21,SSW,202,0.0,2.0,53,0.00,,,0.00,Wunderground v.1.15,2013-03-12 02:20:00,
2013-03-11 19:26:00,65.3,47.7,30.21,SSW,202,0.0,3.0,53,0.00,,,0.00,Wunderground v.1.15,2013-03-12 02:26:00,
2013-03-11 19:31:00,65.2,47.6,30.21,SSW,202,2.0,2.0,53,0.00,,,0.00,Wunderground v.1.15,2013-03-12 02:31:00,
2013-03-11 19:36:00,65.3,47.7,30.20,SSW,202,1.0,2.0,53,0.00,,,0.00,Wunderground v.1.15,2013-03-12 02:36:00,
2013-03-11 19:42:00,65.0,47.9,30.20,SSW,202,0.0,1.0,54,0.00,,,0.00,Wunderground v.1.15,2013-03-12 02:42:00,
2013-03-11 19:47:00,64.8,47.3,30.20,SSW,202,1.0,3.0,53,0.00,,,0.00,Wunderground v.1.15,2013-03-12 02:47:00,
2013-03-11 19:52:00,65.0,47.4,30.21,SSW,202,3.0,3.0,53,0.00,,,0.00,Wunderground v.1.15,2013-03-12 02:52:00,
2013-03-11 19:57:00,64.5,47.5,30.21,SSW,202,1.0,4.0,54,0.00,,,0.00,Wunderground v.1.15,2013-03-12 02:57:00,
2013-03-11 20:02:00,64.5,47.5,30.21,SSW,202,2.0,3.0,54,0.00,,,0.00,Wunderground v.1.15,2013-03-12 03:02:00,
2013-03-11 20:07:00,64.5,47.5,30.21,SSW,202,2.0,3.0,54,0.00,,,0.00,Wunderground v.1.15,2013-03-12 03:07:00,
2013-03-11 20:12:00,64.7,47.2,30.21,SSW,202,2.0,2.0,53,0.00,,,0.00,Wunderground v.1.15,2013-03-12 03:12:00,
2013-03-11 20:17:00,64.5,47.0,30.21,SSW,202,1.0,3.0,53,0.00,,,0.00,Wunderground v.1.15,2013-03-12 03:17:00,
2013-03-11 20:22:00,64.7,47.2,30.21,SSW,202,3.0,4.0,53,0.00,,,0.00,Wunderground v.1.15,2013-03-12 03:22:00,
2013-03-11 20:27:00,64.8,47.3,30.21,SSW,202,0.0,4.0,53,0.00,,,0.00,Wunderground v.1.15,2013-03-12 03:27:00,
2013-03-11 20:32:00,64.7,47.7,30.21,SSW,202,0.0,1.0,54,0.00,,,0.00,Wunderground v.1.15,2013-03-12 03:32:00,
2013-03-11 20:37:00,64.6,47.6,30.21,SSW,202,0.0,1.0,54,0.00,,,0.00,Wunderground v.1.15,2013-03-12 03:37:00,
2013-03-11 20:42:00,64.5,47.5,30.21,SSW,202,0.0,0.0,54,0.00,,,0.00,Wunderground v.1.15,2013-03-12 03:42:00,
2013-03-11 20:47:00,64.4,47.9,30.21,SSW,202,0.0,0.0,55,0.00,,,0.00,Wunderground v.1.15,2013-03-12 03:47:00,
2013-03-11 20:52:00,64.1,47.6,30.21,SSW,202,0.0,0.0,55,0.00,,,0.00,Wunderground v.1.15,2013-03-12 03:52:00,
2013-03-11 20:57:00,64.0,47.5,30.22,SSW,202,0.0,0.0,55,0.00,,,0.00,Wunderground v.1.15,2013-03-12 03:57:00,
2013-03-11 21:00:00,63.8,47.3,30.22,SSW,202,0.0,0.0,55,0.00,,,0.00,Wunderground v.1.15,2013-03-12 04:00:00,
2013-03-11 21:05:00,63.7,47.2,30.22,SSW,202,0.0,0.0,55,0.00,,,0.00,Wunderground v.1.15,2013-03-12 04:05:00,
2013-03-11 21:10:00,63.6,47.6,30.22,SSW,202,0.0,0.0,56,0.00,,,0.00,Wunderground v.1.15,2013-03-12 04:10:00,
2013-03-11 21:15:00,63.3,47.3,30.22,SSW,202,0.0,0.0,56,0.00,,,0.00,Wunderground v.1.15,2013-03-12 04:15:00,
2013-03-11 21:20:00,63.0,47.5,30.22,SSW,202,0.0,0.0,57,0.00,,,0.00,Wunderground v.1.15,2013-03-12 04:20:00,
2013-03-11 21:25:00,62.7,47.2,30.22,SSW,202,0.0,0.0,57,0.00,,,0.00,Wunderground v.1.15,2013-03-12 04:25:00,
2013-03-11 21:30:00,62.7,47.7,30.22,SSW,202,0.0,0.0,58,0.00,,,0.00,Wunderground v.1.15,2013-03-12 04:30:00,
2013-03-11 21:35:00,62.4,47.9,30.22,SSW,202,0.0,0.0,59,0.00,,,0.00,Wunderground v.1.15,2013-03-12 04:35:00,
2013-03-11 21:40:00,61.8,47.3,30.22,SSW,202,0.0,0.0,59,0.00,,,0.00,Wunderground v.1.15,2013-03-12 04:40:00,
2013-03-11 21:46:00,61.6,47.1,30.22,SSW,202,0.0,0.0,59,0.00,,,0.00,Wunderground v.1.15,2013-03-12 04:46:00,
2013-03-11 21:51:00,61.6,47.1,30.22,SSW,202,0.0,0.0,59,0.00,,,0.00,Wunderground v.1.15,2013-03-12 04:51:00,
2013-03-11 21:56:00,61.3,47.3,30.22,SSW,202,0.0,0.0,60,0.00,,,0.00,Wunderground v.1.15,2013-03-12 04:56:00,
2013-03-11 22:01:00,61.1,47.1,30.22,SSW,202,0.0,0.0,60,0.00,,,0.00,Wunderground v.1.15,2013-03-12 05:01:00,
2013-03-11 22:06:00,60.9,46.9,30.22,SSW,202,0.0,0.0,60,0.00,,,0.00,Wunderground v.1.15,2013-03-12 05:06:00,
2013-03-11 22:11:00,60.6,46.6,30.22,SSW,202,0.0,0.0,60,0.00,,,0.00,Wunderground v.1.15,2013-03-12 05:11:00,
2013-03-11 22:16:00,60.3,46.4,30.22,SSW,202,0.0,0.0,60,0.00,,,0.00,Wunderground v.1.15,2013-03-12 05:16:00,
2013-03-11 22:21:00,60.0,46.5,30.22,SSW,202,0.0,0.0,61,0.00,,,0.00,Wunderground v.1.15,2013-03-12 05:21:00,
2013-03-11 22:26:00,59.7,46.2,30.22,SSW,202,0.0,0.0,61,0.00,,,0.00,Wunderground v.1.15,2013-03-12 05:26:00,
2013-03-11 22:31:00,59.4,46.4,30.22,SSW,202,0.0,0.0,62,0.00,,,0.00,Wunderground v.1.15,2013-03-12 05:31:00,
2013-03-11 22:36:00,59.2,46.2,30.22,SSW,202,1.0,2.0,62,0.00,,,0.00,Wunderground v.1.15,2013-03-12 05:36:00,
2013-03-11 22:42:00,59.0,45.6,30.22,SSW,202,0.0,1.0,61,0.00,,,0.00,Wunderground v.1.15,2013-03-12 05:42:00,
2013-03-11 22:47:00,59.0,45.6,30.23,SSW,202,1.0,2.0,61,0.00,,,0.00,Wunderground v.1.15,2013-03-12 05:47:00,
2013-03-11 22:52:00,59.0,46.0,30.23,SSW,202,0.0,1.0,62,0.00,,,0.00,Wunderground v.1.15,2013-03-12 05:52:00,
2013-03-11 22:57:00,58.9,45.9,30.22,SSW,202,1.0,2.0,62,0.00,,,0.00,Wunderground v.1.15,2013-03-12 05:57:00,
2013-03-11 23:02:00,58.6,45.6,30.22,SSW,202,2.0,3.0,62,0.00,,,0.00,Wunderground v.1.15,2013-03-12 06:02:00,
2013-03-11 23:07:00,58.6,45.6,30.22,SSW,202,0.0,3.0,62,0.00,,,0.00,Wunderground v.1.15,2013-03-12 06:07:00,
2013-03-11 23:12:00,58.4,45.4,30.22,SSW,202,0.0,1.0,62,0.00,,,0.00,Wunderground v.1.15,2013-03-12 06:12:00,
2013-03-11 23:17:00,58.2,45.2,30.23,SSW,202,0.0,1.0,62,0.00,,,0.00,Wunderground v.1.15,2013-03-12 06:17:00,
2013-03-11 23:22:00,58.1,45.6,30.23,SSW,202,0.0,0.0,63,0.00,,,0.00,Wunderground v.1.15,2013-03-12 06:22:00,
2013-03-11 23:27:00,58.0,45.5,30.23,SSW,202,0.0,0.0,63,0.00,,,0.00,Wunderground v.1.15,2013-03-12 06:27:00,
2013-03-11 23:32:00,57.8,45.3,30.23,SSW,202,0.0,0.0,63,0.00,,,0.00,Wunderground v.1.15,2013-03-12 06:32:00,
2013-03-11 23:37:00,57.6,45.5,30.23,SSW,202,0.0,0.0,64,0.00,,,0.00,Wunderground v.1.15,2013-03-12 06:37:00,
2013-03-11 23:42:00,57.4,45.3,30.23,SSW,202,0.0,0.0,64,0.00,,,0.00,Wunderground v.1.15,2013-03-12 06:42:00,
2013-03-11 23:47:00,57.2,45.5,30.23,SSW,202,0.0,0.0,65,0.00,,,0.00,Wunderground v.1.15,2013-03-12 06:47:00,
2013-03-11 23:52:00,57.0,45.3,30.22,SSW,202,0.0,0.0,65,0.00,,,0.00,Wunderground v.1.15,2013-03-12 06:52:00,
2013-03-11 23:57:00,56.9,45.3,30.23,SSW,202,0.0,0.0,65,0.00,,,0.00,Wunderground v.1.15,2013-03-12 06:57:00,